Regional Weather Roundup
Issued by NWS

Home | Current Version | Previous Version | Graphics & Text | Print | Product List | Glossary On
Versions: 1 2 3 4 5 6 7 8 9 10 11 12 13 14 15 16 17 18 19 20 21 22 23 24 25 26 27 28 29 30 31 32 33 34 35 36 37 38 39 40 41 42 43 44 45 46 47 48 49 50
739
ASUS45 KBOU 141207
RWRCO

WEATHER ROUNDUP FOR COLORADO
NATIONAL WEATHER SERVICE DENVER/BOULDER CO
500 AM MST SUN FEB 14 2016

NOTE: "FAIR" INDICATES FEW OR NO CLOUDS BELOW 12000 FEET WITH NO
SIGNIFICANT WEATHER AND/OR OBSTRUCTIONS TO VISIBILITY.

COZ001>005-013-030-031-141300-
...NORTHWEST COLORADO...

CITY           SKY/WX    TMP DP  RH WIND       PRES   REMARKS
CRAIG          CLOUDY     9   6  88 S3        30.15S
HAYDEN         MOCLDY    21  12  68 S6        30.12S WCI  14
MEEKER         FAIR      16  10  77 N6        30.16F WCI   7
MOUNT WERNER   NOT AVBL
STEAMBOAT SPGS CLOUDY    15  12  86 CALM      30.12S
WALDEN         CLOUDY    30  12  47 S14       30.08F WCI  20
$$

COZ006>008-011-141300-
...WEST CENTRAL VALLEYS...

CITY           SKY/WX    TMP DP  RH WIND       PRES   REMARKS
GRAND JUNCTION FAIR      28  25  88 E5        30.18R WCI  23
MONTROSE       FAIR      25  18  74 S6        30.20R WCI  18
EAGLE          FAIR      21  19  93 CALM      30.18S
RIFLE          FAIR      22  17  81 SE3       30.19R
DELTA          FAIR      30  25  83 CALM      30.20R
NUCLA          FAIR      30  21  69 SE8       30.21S WCI  23
$$

COZ017>023-064>068-141300-
...SOUTHWEST COLORADO...

CITY           SKY/WX    TMP DP  RH WIND       PRES   REMARKS
DURANGO        FAIR      17  12  80 NE5       30.13S WCI  10
CORTEZ         FAIR      23  19  85 NE8       30.15F WCI  14
PAGOSA SPRINGS FAIR      21  12  67 CALM      30.15R
TELLURIDE      NOT AVBL
WOLF CREEK PAS FAIR      23  -9  23 SW18      30.24S WCI   9
$$

COZ009-010-012-014-032>034-037-058>063-141300-
...CENTRAL COLORADO...

CITY           SKY/WX    TMP DP  RH WIND       PRES   REMARKS
ASPEN          FAIR      20  10  65 SW7       30.14F WCI  11
BUENA VISTA    FAIR      35   9  33 NW13      30.09S WCI  27
COPPER MTN     FAIR      19  10  68 W10G26    30.12F WCI   8
BERTHOUD PASS  FAIR      12   3  67 NW38G47   30.05F WCI -11
COTTONWOOD PAS FAIR      34   1  25 W17G35    30.09S WCI  23
GUNNISON       FAIR      -6 N/A N/A CALM      30.24R
KREMMLING      FAIR      10   5  79 CALM      30.14F
LEADVILLE      FAIR      21   8  57 N8        30.10F WCI  11
MONARCH PASS   FAIR      18  10  73 MISG      30.26S
SALIDA         NOT AVBL
SUNLIGHT       FAIR      25  16  68 CALM        N/A
WILKERSON PASS MOCLDY    23   1  39 W18G36    30.07S WCI   9
$$

COZ069>075-141300-
...SAN LUIS VALLEY/SANGRE DE CRISTO MOUNTAINS...

CITY           SKY/WX    TMP DP  RH WIND       PRES   REMARKS
ALAMOSA        FAIR      21  16  81 SW5       30.11F WCI  15
LA VETA PASS   FAIR      27   9  46 S10       30.09F WCI  17
SAGUACHE       FAIR      28  18  64 NW8       30.12F WCI  20
$$

COZ035-036-038>040-141300-
...NORTHERN COLORADO FRONT RANGE...

CITY           SKY/WX    TMP DP  RH WIND       PRES   REMARKS
DENVER INTL AP FAIR      30  23  75 S16       29.94F WCI  19
DMNS CITY PARK   N/A     32  22  65 W3G15     29.96R
AURORA         PTCLDY    30  23  74 S13       29.95F WCI  20
FRONT RANGE AP   N/A     30  25  80 S10       29.96F WCI  21
ERIE MUNI ARPT FAIR      37  23  56 S13       29.92S
BOULDER MUN AP FAIR      36  21  55 S5        29.90F
CENTENNIAL     FAIR      33  21  61 S17       29.95F WCI  22
BROOMFIELD     FAIR      32  23  69 CALM      29.95S
FORT COLLINS   FAIR      32  23  69 SE13      29.93S WCI  22
LONGMONT       FAIR      34  25  70 CALM      29.93F
$$

COZ041-046-047-076>085-087-088-141300-
...PIKES PEAK/PALMER DIVIDE AND SOUTHERN FOOTHILLS...

CITY           SKY/WX    TMP DP  RH WIND       PRES   REMARKS
COLO. SPRINGS  FAIR      29  24  82 S15       30.04F WCI  18
A. F. ACADEMY  FAIR      26  18  73 CALM      30.01F
SCHRIEVER AFB  FAIR      25  24  94 SW13      30.04F WCI  14
ELLICOTT       FAIR     N/A N/A N/A W5        30.03S
FALCON         FAIR      25  21  84 SW10      30.03S WCI  15
FORT CARSON    FAIR      31  25  77 S15       30.01F WCI  21
LIMON          FAIR      23  21  92 NW7       29.99F WCI  15
MONUMENT HILL  FAIR      23  16  74 S14       30.00F WCI  11
TRINIDAD       FAIR      24  20  84 W6        30.08F WCI  17
$$

COZ042>045-048>051-090-091-141300-
...NORTHEAST COLORADO...

CITY           SKY/WX    TMP DP  RH WIND       PRES   REMARKS
GREELEY ARPT   FAIR      28  21  74 S5        29.94F WCI  23
AKRON          FAIR      31  21  66 N13       29.93S WCI  21
BURLINGTON     FAIR      26  20  77 NW8       29.99R WCI  18
WRAY           FAIR      31  25  77 N10       29.94F WCI  22
STERLING       FAIR      28  23  80 CALM      29.94F
HOLYOKE        FAIR      30  27  86 NW5       29.95F WCI  25
FORT MORGAN    FAIR      28  22  76 SW3       29.97S
$$

COZ086-089-092>099-141300-
...SOUTHEAST COLORADO...

CITY           SKY/WX    TMP DP  RH WIND       PRES   REMARKS
PUEBLO         FAIR      26  21  81 NW7       30.06S WCI  18
LA JUNTA       FAIR      30  25  81 W12       30.05F WCI  20
LAMAR          FAIR      22  20  92 SW7       30.04S WCI  13
SPRINGFIELD      N/A     26  22  84 NW8       30.03R WCI  18
$$




USA.gov is the U.S. government's official web portal to all federal, state and local government web resources and services.